Wind_Speed
5 8 11 13 13 13 13 13 13 12 12 11 11 12 13 12 11 11 11 10 10 10 10 10 11 11 11 11 12 11 11 11 12 12 13 13 12 12 11 11 11 10 9 6 6 6 5 4 4 5 5 5 5 3 4 6 6 5 4 5 6 5 4 5 7 9 9 9 8 6 3 1 2 3 3 2 2 4 6 7 7 8 10 12 13
5 7 10 12 13 13 13 13 13 13 12 12 12 13 12 11 11 11 10 9 11 11 10 11 11 11 10 11 10 10 10 10 11 10 10 10 10 11 11 10 10 9 8 7 7 7 6 3 3 5 7 7 6 6 6 5 4 5 5 5 6 4 4 4 7 9 9 10 8 6 4 1 1 1 2 2 1 4 6 7 8 8 10 12 12
6 7 9 11 12 13 13 12 12 12 12 12 13 12 10 9 9 10 10 10 10 10 10 10 9 9 10 10 9 9 9 9 10 9 9 8 9 11 10 9 11 10 9 8 8 7 4 2 2 5 9 10 8 8 6 4 4 4 5 6 5 5 5 4 5 8 10 10 8 5 4 3 1 2 4 3 2 3 4 5 8 9 10 11 11
7 7 7 9 10 11 11 11 11 11 12 12 12 11 8 7 9 9 9 8 7 7 8 8 8 8 9 10 10 10 10 10 11 11 10 10 11 12 9 9 12 11 10 10 10 9 5 3 3 8 10 11 9 8 5 4 4 4 6 7 5 4 6 5 4 6 9 9 7 5 4 3 2 4 5 3 2 2 2 4 7 8 8 9 9
5 6 6 7 8 9 9 9 8 9 9 10 10 9 8 7 8 7 6 4 3 4 6 7 7 7 8 9 9 10 11 11 12 12 11 11 10 9 7 8 10 10 9 12 13 10 8 6 10 11 10 9 9 7 5 4 4 6 8 8 6 5 7 8 5 3 5 6 6 5 5 3 4 7 6 2 3 3 2 2 5 6 6 7 9
4 5 6 7 7 7 7 6 6 6 6 7 7 7 7 6 5 4 3 1 1 4 7 7 6 6 6 7 8 9 11 11 10 11 10 10 11 10 8 6 7 9 10 12 13 11 10 11 11 10 8 7 7 5 3 3 4 7 9 8 6 5 7 9 7 2 2 4 3 4 5 5 6 7 6 3 2 3 3 2 3 4 5 6 9
4 4 6 6 6 6 5 5 5 4 4 4 5 5 5 3 2 1 1 1 2 3 5 5 4 4 5 7 8 9 11 10 8 8 8 9 11 10 9 7 8 11 12 12 12 10 8 7 6 8 8 6 5 3 2 2 3 6 8 6 4 5 6 8 8 6 5 5 4 4 4 4 6 7 6 5 4 3 2 3 2 3 5 6 7
4 4 5 5 5 5 4 4 3 2 2 2 3 4 4 3 1 1 0 1 2 2 3 4 4 4 6 8 10 10 10 10 7 7 7 8 8 7 8 9 11 12 12 11 10 9 6 4 5 7 6 4 3 2 1 1 4 4 4 2 3 4 5 6 8 8 9 8 8 7 6 5 4 4 5 6 5 5 3 2 2 2 4 5 5
3 4 5 5 5 4 4 4 3 3 2 2 2 2 2 2 2 1 1 0 1 2 3 5 4 6 8 9 10 10 9 8 8 8 9 7 6 5 6 6 9 11 11 10 9 8 6 5 4 4 4 4 4 3 1 2 2 2 1 2 3 4 5 6 7 8 9 10 10 9 9 9 6 4 4 5 5 5 5 4 3 3 4 4 4
4 5 6 6 5 4 4 3 3 2 2 2 2 2 2 1 1 1 1 1 1 2 3 5 5 6 7 8 9 9 7 6 6 7 7 7 8 7 5 3 3 7 8 6 5 5 5 4 3 4 6 5 4 3 1 1 0 1 2 3 4 5 6 7 8 9 9 10 10 9 9 10 8 6 6 7 5 5 5 6 6 5 5 5 5
6 7 8 8 7 5 4 4 4 4 3 3 3 3 3 2 2 2 2 2 2 2 3 4 4 5 6 7 7 7 6 5 4 4 3 4 6 6 6 4 2 4 5 4 5 5 3 5 5 5 6 4 2 2 1 1 1 2 3 4 5 6 7 8 9 9 9 10 11 10 9 10 9 7 8 9 7 6 6 7 7 7 7 8 7
7 6 7 8 8 7 7 7 7 6 5 4 4 4 4 3 3 3 3 3 3 3 3 3 3 3 4 4 3 4 4 3 2 2 3 2 2 2 2 4 3 4 5 5 6 7 6 6 6 4 4 3 2 2 3 3 3 4 5 5 6 7 8 9 10 10 11 11 12 11 11 11 10 9 9 9 8 8 7 6 8 10 9 9 9
7 6 7 7 6 7 8 8 7 7 7 6 5 5 5 5 4 4 5 4 3 3 3 3 4 4 3 3 4 4 4 3 3 4 5 6 6 6 6 6 5 5 6 6 7 9 8 7 6 5 5 5 4 4 5 5 5 5 6 6 7 8 9 9 10 11 11 12 12 12 11 11 10 9 9 9 9 9 8 7 8 10 8 9 10
7 6 7 6 7 7 7 7 7 7 8 7 6 6 5 5 5 5 5 5 4 5 5 5 5 5 5 6 5 6 7 7 7 7 7 8 8 8 8 7 6 6 7 9 11 11 9 7 7 7 7 6 6 5 5 5 5 6 6 7 7 7 8 8 9 10 10 10 11 11 12 11 9 8 8 9 9 9 9 9 8 9 9 10 10
7 7 7 7 8 8 7 7 6 7 7 7 7 5 4 4 4 5 6 5 5 5 5 5 5 5 6 6 6 6 8 9 9 9 8 8 9 9 8 8 8 8 9 10 11 10 9 8 7 7 6 6 5 5 4 5 5 5 5 6 6 6 7 8 9 9 10 10 11 10 10 10 9 8 8 8 8 9 10 10 9 7 8 8 9
7 7 7 8 8 8 7 7 6 7 7 6 6 5 4 5 5 6 6 6 6 6 6 5 6 6 6 6 6 7 7 8 8 8 8 8 8 8 9 9 10 10 10 9 9 8 8 7 6 6 5 5 4 4 4 4 4 4 5 5 6 7 8 9 10 10 11 11 11 10 9 9 8 7 8 8 7 8 9 10 9 8 7 6 6
7 7 7 7 7 7 7 6 6 7 6 6 6 5 5 6 6 6 6 6 6 6 6 6 6 7 6 5 5 6 6 7 8 8 7 7 8 8 9 10 10 9 9 8 8 7 6 5 5 4 4 4 4 4 5 5 4 4 5 6 7 8 9 10 11 11 11 11 10 9 9 8 7 7 7 7 7 7 9 10 10 9 8 7 6
8 8 8 7 7 6 6 6 7 7 7 7 7 7 6 6 6 6 6 6 6 6 6 6 6 7 7 6 5 5 6 6 7 7 7 7 8 8 9 9 8 8 7 6 6 5 5 4 3 3 4 4 4 4 5 5 4 4 4 6 8 9 10 12 12 11 10 10 9 9 8 8 7 7 8 8 7 8 9 9 9 9 9 8 7
9 8 7 7 7 6 7 7 8 8 8 8 7 7 7 7 6 6 5 5 5 6 6 6 6 7 6 6 5 5 5 5 6 5 5 6 7 7 8 7 7 7 6 5 4 4 3 3 3 3 4 5 5 5 5 5 4 4 4 5 9 11 12 12 12 11 9 8 9 8 8 8 7 8 8 8 8 8 8 9 9 9 9 9 9
8 8 7 7 7 7 7 7 8 8 8 8 8 7 7 7 6 6 5 6 5 6 7 7 7 6 6 5 4 4 4 4 4 4 5 6 6 6 6 6 6 6 5 5 4 4 3 3 3 3 4 4 4 5 5 5 5 5 5 7 9 12 13 13 11 10 8 8 9 9 8 8 8 9 9 8 8 8 8 8 8 8 8 8 9
8 8 7 8 8 8 7 8 8 8 8 8 7 7 7 7 7 6 6 6 6 7 7 7 7 5 5 6 6 6 5 5 5 5 6 6 6 6 6 6 6 6 6 5 5 4 3 3 3 3 3 4 5 4 4 4 5 5 6 7 9 12 13 11 9 9 8 8 9 9 8 8 8 9 9 9 9 9 8 9 8 8 9 9 9
9 9 8 8 9 9 8 8 8 8 7 7 7 6 7 6 6 6 6 6 7 7 8 7 6 5 6 7 7 7 7 7 7 7 8 8 7 7 7 7 7 6 5 5 4 3 3 3 3 3 3 4 5 4 4 4 5 6 7 8 10 12 11 9 8 8 8 8 9 9 8 9 9 9 10 10 10 10 9 9 9 9 9 9 9
9 9 8 9 10 9 9 8 8 8 7 6 6 5 6 5 5 5 6 6 7 7 7 6 5 5 5 6 7 7 8 8 8 8 8 8 8 7 7 6 6 5 5 5 4 4 4 3 3 3 3 3 4 4 4 5 5 6 7 8 10 11 10 8 7 7 7 8 8 8 8 9 10 10 11 11 11 10 10 10 10 10 11 11 10
9 8 8 10 10 9 9 9 9 8 7 6 5 5 5 5 5 5 7 7 7 7 6 5 4 4 5 5 6 7 7 8 8 8 8 8 7 6 6 6 5 5 5 5 5 4 4 3 3 3 3 3 4 4 4 5 5 6 7 7 8 9 8 7 7 7 7 8 8 9 9 10 11 11 12 12 11 11 11 11 12 12 11 12 11
9 9 9 9 9 9 9 9 9 9 8 7 6 6 6 6 6 6 7 7 7 7 6 5 4 4 4 5 5 5 6 6 6 7 7 6 6 5 5 5 5 6 6 5 5 4 3 3 3 3 3 3 3 3 4 4 4 5 5 6 8 9 8 7 8 8 8 8 9 10 10 10 11 11 11 11 11 11 12 12 12 12 12 12 12
10 10 9 9 9 9 9 9 9 10 9 9 7 6 6 6 6 6 7 7 7 6 5 5 4 4 4 4 5 5 4 4 5 5 5 5 5 4 4 5 5 6 5 5 5 4 4 3 3 3 3 3 2 2 3 3 3 4 5 7 9 9 9 9 9 10 10 10 11 11 11 10 10 11 11 11 11 12 12 12 12 12 12 12 12
10 9 9 9 9 10 10 10 9 10 10 10 9 8 7 7 7 7 7 8 7 6 5 4 4 4 4 5 5 4 3 3 4 4 5 4 4 4 4 5 5 5 6 5 4 4 4 3 3 3 3 2 1 1 2 2 3 5 7 9 10 10 10 10 11 11 11 11 12 11 10 10 10 10 11 11 12 12 12 12 12 12 12 12 13
10 9 10 10 9 10 10 10 10 10 11 11 10 9 9 9 9 8 9 8 8 7 6 4 4 4 5 5 5 4 3 3 3 4 4 4 3 3 4 4 5 5 6 6 5 4 3 3 3 2 1 1 0 1 1 2 4 7 9 10 11 11 11 12 12 13 12 12 12 11 9 9 10 10 10 11 11 11 12 12 12 12 12 13 13
11 10 10 10 10 10 10 11 11 11 11 11 10 10 9 9 9 10 9 9 9 8 7 5 5 5 5 6 5 4 3 3 3 3 2 2 2 2 3 3 4 5 5 5 4 3 3 3 3 1 1 2 3 3 3 4 6 9 11 11 11 12 12 13 13 13 13 11 11 10 9 9 11 11 11 10 10 11 12 12 12 12 13 13 13
11 11 10 10 10 10 11 12 11 11 12 11 10 10 10 10 10 10 10 10 10 9 8 7 6 6 7 7 6 5 4 3 2 1 1 2 2 3 3 4 4 4 4 4 3 2 2 2 2 1 1 3 4 3 3 4 8 10 11 11 12 12 12 13 13 13 12 10 10 10 10 10 11 11 11 11 11 11 11 12 13 13 13 14 14
10 10 10 10 10 11 12 12 12 12 12 11 10 10 10 10 10 11 11 11 11 10 9 8 8 7 7 7 6 5 4 3 2 1 1 2 2 3 4 4 5 4 4 4 3 3 3 2 2 1 2 3 4 3 3 5 8 10 11 12 12 12 13 13 12 11 11 10 10 11 11 10 10 10 11 11 11 11 12 12 13 14 15 15 16
9 9 10 10 10 11 12 12 13 13 12 12 11 10 10 11 11 11 11 11 11 11 10 9 8 7 7 6 5 5 4 3 2 1 1 2 3 3 4 5 5 5 4 4 4 4 4 3 3 2 3 3 4 2 4 6 8 11 13 13 13 13 13 12 11 10 11 10 10 11 10 10 10 10 12 12 12 13 13 14 15 15 16 16 17
8 9 10 10 10 11 12 13 12 13 13 13 13 12 11 12 12 12 11 11 11 10 9 8 7 7 6 6 5 5 4 2 1 1 2 3 4 4 5 5 4 4 4 4 4 5 4 4 4 4 4 4 4 3 5 7 10 12 14 15 13 12 11 10 9 10 10 10 10 11 11 11 11 11 13 13 14 14 15 16 17 17 17 17 17
8 9 9 10 10 11 12 12 12 12 13 13 14 13 12 12 13 13 13 12 12 11 9 8 7 6 6 5 5 5 4 1 1 2 3 4 4 5 5 4 4 3 4 4 5 5 5 5 5 5 4 3 3 5 7 9 11 13 15 14 11 10 10 9 9 9 10 10 11 11 11 12 12 14 14 14 15 17 18 19 19 19 19 19 17
8 8 9 9 10 11 12 13 12 12 12 13 13 13 12 12 13 13 13 14 13 12 10 9 8 6 5 5 5 5 3 1 1 2 3 4 4 4 3 3 3 3 4 5 5 5 5 5 5 4 3 3 3 7 8 10 12 13 13 11 9 8 9 8 8 9 10 11 11 10 11 12 14 15 15 14 16 19 20 21 22 23 22 21 19
6 7 9 10 10 11 12 13 12 12 12 13 13 13 13 13 12 12 13 13 13 12 10 9 8 7 5 5 5 4 2 0 1 2 3 3 3 2 2 2 2 3 4 4 5 5 5 4 4 4 3 2 4 7 9 10 10 11 11 9 8 8 9 9 9 10 11 11 11 11 12 13 15 15 15 17 20 22 21 21 22 23 23 22 20
5 6 8 9 10 10 11 11 11 12 12 12 12 12 12 13 12 12 12 12 12 11 10 9 8 6 5 5 5 3 1 1 2 3 3 2 1 1 1 2 3 3 4 4 4 4 4 5 4 5 5 3 3 7 9 8 9 11 11 10 9 8 9 10 11 11 12 12 11 12 14 15 16 15 17 20 22 22 21 21 22 22 22 21 18
6 6 7 8 9 9 10 10 11 11 11 11 12 12 12 13 13 12 12 12 11 11 10 9 8 6 6 6 5 3 1 0 2 3 2 0 1 2 2 2 3 3 4 4 3 3 4 5 4 4 5 4 3 6 8 9 10 11 11 10 9 9 10 11 12 12 12 12 13 14 15 17 16 16 19 22 21 19 19 20 20 20 21 19 15
5 5 6 7 7 8 8 10 11 11 12 13 13 13 13 13 14 13 12 11 11 11 10 9 8 7 8 8 7 6 6 4 1 0 1 2 2 3 3 2 2 3 3 3 3 3 4 4 4 4 5 5 3 4 7 10 11 10 10 10 10 10 11 12 13 14 13 14 14 15 16 17 16 17 21 22 19 17 17 18 18 18 18 16 13
3 3 4 4 6 7 8 10 10 11 12 13 13 13 13 13 13 13 12 11 11 11 10 9 9 9 10 11 11 10 8 6 5 4 4 4 4 4 3 2 2 3 3 3 4 4 3 4 4 4 4 4 3 4 8 10 10 9 10 11 10 10 12 13 14 15 15 16 15 15 17 18 17 19 22 20 16 15 15 16 16 15 14 14 15
1 2 2 3 6 7 8 8 8 8 10 11 12 13 13 13 13 13 12 10 10 11 11 11 11 11 11 12 12 10 7 6 6 7 7 6 5 4 3 2 2 2 3 3 3 3 3 4 4 3 2 3 4 6 8 8 9 9 10 12 11 10 12 14 16 16 16 16 16 17 18 20 21 21 20 16 14 14 15 15 15 13 12 14 16
1 1 3 4 5 6 6 5 5 6 8 9 10 12 12 12 12 12 11 10 11 12 12 12 12 12 11 11 11 10 8 7 8 9 9 8 6 5 3 3 2 2 2 2 2 3 3 3 2 2 2 3 6 8 7 7 8 10 12 13 12 11 13 15 16 17 17 17 17 18 20 22 22 20 18 15 14 15 15 14 13 12 12 13 14
1 3 4 4 3 2 3 4 5 6 7 8 10 11 11 11 12 12 11 11 12 13 13 13 12 12 11 10 9 8 8 8 10 10 9 8 7 5 4 4 3 2 2 2 2 2 3 2 1 2 3 4 6 6 6 7 10 11 13 13 13 14 15 15 16 18 18 17 18 20 21 21 20 17 17 16 13 13 15 15 13 12 11 11 12
3 2 1 2 1 0 2 3 4 6 6 7 9 10 11 12 11 11 12 12 13 13 13 13 13 12 9 7 7 7 7 8 11 11 10 8 7 6 5 5 3 2 1 1 2 2 2 2 2 3 4 6 6 5 6 9 12 13 13 13 14 15 16 18 19 18 17 18 21 20 20 19 17 15 16 15 12 13 15 15 14 13 11 10 10
5 4 3 2 1 1 2 3 4 5 6 7 8 10 11 12 11 12 12 12 12 13 13 13 13 11 8 7 7 8 8 10 11 11 10 9 7 6 6 5 3 2 1 1 1 2 1 1 2 4 5 6 6 5 6 9 12 13 13 14 16 16 17 20 20 18 19 22 22 18 17 16 14 13 14 14 12 13 14 14 13 13 11 10 11
7 5 3 2 1 1 2 3 4 5 6 7 8 10 12 12 12 13 12 12 12 12 12 12 11 10 9 10 9 9 10 11 11 10 9 8 7 6 5 4 3 1 1 1 2 2 1 1 2 4 5 6 6 6 8 10 12 13 13 15 16 16 17 20 20 19 21 22 19 16 14 12 12 12 13 12 12 13 13 13 12 12 11 11 12
8 7 4 2 1 2 2 3 5 6 7 8 9 10 10 11 12 13 12 12 12 11 11 12 10 9 9 10 9 9 11 11 11 9 9 8 6 5 5 4 2 1 1 1 2 3 2 2 3 4 5 6 5 6 10 12 13 13 14 16 16 16 18 20 20 21 21 19 16 15 12 12 13 14 12 12 13 14 14 14 13 12 12 12 13
8 7 5 3 2 2 3 4 5 6 7 9 9 9 10 11 12 12 11 11 11 11 11 10 9 9 9 9 9 10 11 11 10 9 8 8 6 5 4 3 2 2 2 3 3 3 3 3 4 4 5 6 5 8 11 14 14 14 16 17 16 16 18 20 21 22 20 16 15 15 13 13 14 14 14 14 15 15 15 15 14 13 13 13 13
8 7 5 3 2 3 4 4 5 6 8 9 9 9 10 10 11 11 11 11 10 10 10 9 9 9 10 9 10 12 11 10 10 9 9 9 8 6 4 4 5 5 5 6 5 4 5 5 5 5 6 7 7 9 12 14 14 15 17 18 17 17 20 23 22 20 18 15 15 15 15 14 14 15 15 15 15 15 16 16 15 15 15 14 13
9 8 5 4 2 3 4 5 5 6 7 9 10 10 9 9 10 10 10 10 9 9 9 9 9 10 10 10 12 12 10 10 10 10 10 11 10 8 7 6 7 6 6 7 6 4 5 7 7 6 7 8 8 10 12 13 13 15 18 18 16 16 21 24 22 19 16 15 15 15 14 14 15 15 15 15 15 15 16 16 15 16 16 15 15
10 8 6 5 3 3 4 5 5 6 7 9 9 9 9 10 11 10 9 10 10 10 9 9 10 10 11 11 12 12 10 9 9 10 11 12 11 10 9 8 6 5 5 6 5 3 3 6 8 8 7 8 9 10 12 13 15 17 18 16 14 15 19 21 20 18 17 17 16 14 14 14 15 15 15 15 15 16 16 15 15 15 16 17 17
Wind_Direction
194 185 192 198 201 205 212 217 220 223 223 223 226 229 232 236 239 243 243 235 231 230 228 231 234 236 239 242 245 246 246 247 247 249 251 253 250 242 244 252 257 264 266 259 250 241 228 240 284 307 317 318 314 311 306 304 302 296 300 303 295 304 325 330 336 337 341 348 347 341 336 326 344 337 321 317 263 223 219 221 215 210 210 213 216
169 175 185 194 200 203 209 214 216 217 216 218 224 228 231 235 239 244 244 236 234 233 232 233 237 241 246 252 258 261 260 257 256 257 256 254 246 244 251 252 248 246 242 240 237 228 222 239 287 312 317 312 304 295 289 290 285 279 291 293 286 299 320 330 340 342 348 350 342 333 336 320 204 355 351 0 301 241 225 222 223 220 219 217 213
170 180 186 194 198 201 208 215 217 217 218 221 228 233 235 235 236 239 237 237 241 241 242 247 251 254 257 261 265 268 268 266 268 266 261 256 248 256 258 236 233 236 235 229 210 204 214 243 292 315 313 305 292 284 279 269 263 275 286 288 295 314 314 318 340 347 350 346 335 328 340 334 197 34 18 28 0 281 247 236 233 228 227 223 214
180 184 186 193 196 200 209 216 220 222 224 228 234 237 237 236 236 238 236 238 245 250 256 266 273 272 269 269 271 271 270 271 274 273 266 256 251 255 242 217 232 239 230 220 206 198 187 185 308 312 301 292 282 277 264 235 248 278 284 285 291 310 316 323 331 340 349 349 341 331 323 319 349 4 0 22 31 341 285 259 250 239 228 225 224
185 180 181 190 192 198 209 215 220 224 228 233 236 235 230 232 236 240 243 242 242 260 268 274 279 279 277 278 279 278 279 278 278 277 270 257 248 240 215 209 230 230 215 205 201 201 205 237 292 298 289 283 274 268 252 226 250 274 275 273 268 278 317 333 323 313 353 358 347 338 328 329 350 345 338 2 35 7 352 295 264 257 240 234 240
187 178 178 188 192 194 202 210 213 217 228 235 233 230 228 232 242 249 254 259 271 280 282 284 286 287 286 286 286 284 284 281 277 277 274 266 257 239 222 215 213 216 210 199 202 220 240 258 281 279 272 271 260 259 249 231 261 273 264 258 264 286 321 334 333 319 355 357 351 349 340 330 330 330 329 341 0 0 356 331 284 263 247 241 248
182 175 166 177 189 190 196 206 210 213 221 225 223 225 228 230 239 247 246 15 339 317 306 307 310 307 300 291 286 282 279 277 275 276 275 271 262 241 234 229 206 211 211 205 214 226 236 255 273 262 254 248 242 249 247 252 291 281 263 260 292 323 324 331 343 345 339 345 357 347 326 312 319 326 328 330 328 330 334 332 313 264 247 241 244
162 161 149 156 172 176 187 197 195 186 185 191 208 215 213 206 184 195 207 8 331 321 312 310 309 298 291 283 279 276 275 276 278 281 277 276 269 234 220 218 205 204 200 195 197 198 209 239 250 247 239 221 214 208 208 279 308 290 265 289 327 327 326 335 344 340 335 342 347 337 324 315 313 314 319 322 321 320 316 312 319 299 270 249 242
122 122 123 132 141 145 158 172 164 157 162 157 169 180 164 158 165 200 251 347 320 300 292 293 293 288 282 279 278 276 275 277 278 277 271 272 262 208 190 204 203 195 185 177 178 189 219 233 223 219 207 189 184 185 213 264 302 309 318 0 343 333 337 341 339 334 333 336 336 332 328 320 309 296 306 310 308 315 319 309 301 298 289 273 262
103 98 99 104 108 118 132 143 148 146 148 133 114 88 87 101 113 87 1 26 333 309 307 303 301 296 288 282 282 282 279 276 280 282 273 259 246 228 233 277 220 184 173 171 183 200 224 216 190 178 175 164 151 164 210 217 178 39 35 17 6 354 344 340 336 333 331 327 325 327 323 315 316 315 309 308 307 308 309 306 302 298 295 287 267
99 92 90 93 97 101 104 108 111 112 115 116 103 84 77 79 80 68 40 29 2 344 340 323 313 307 299 294 296 298 294 285 284 297 300 262 241 242 254 262 203 180 179 175 172 168 175 178 168 162 166 156 128 149 156 85 64 48 34 21 11 358 348 342 336 329 324 318 318 323 320 315 318 315 306 309 310 306 305 304 307 310 305 294 277
98 95 96 98 102 103 103 104 105 108 110 103 94 88 83 87 101 92 62 42 28 18 8 351 351 344 323 321 331 333 328 317 312 345 22 52 124 149 190 177 159 165 164 155 156 157 156 162 162 156 156 149 123 96 75 54 36 32 24 10 5 360 352 344 335 328 325 323 323 327 325 320 315 308 306 307 302 301 304 299 303 310 305 297 291
102 102 102 102 104 105 106 107 107 105 98 92 87 81 81 87 87 76 64 55 54 55 48 43 41 34 32 37 38 35 37 42 49 53 61 75 95 106 117 135 137 136 140 143 155 160 156 149 145 131 119 117 102 76 62 46 29 23 15 5 5 3 355 345 336 332 332 331 330 329 326 320 315 315 314 306 301 300 296 291 298 304 300 296 295
105 105 104 104 103 104 106 103 102 98 96 98 94 81 77 76 71 75 78 74 75 72 66 71 68 59 60 61 58 58 62 68 74 80 86 91 98 103 106 115 123 124 132 140 145 149 144 131 122 111 101 98 90 73 57 46 31 19 13 9 11 11 1 349 339 336 336 335 330 326 324 320 317 320 317 309 310 308 300 302 312 312 307 304 299
108 106 102 104 106 106 106 103 101 102 103 104 99 88 77 73 75 85 90 86 84 83 78 80 84 81 76 73 66 63 66 73 81 89 96 98 97 98 100 105 108 113 123 130 133 132 126 119 113 103 98 97 91 73 57 51 35 25 28 27 27 23 9 356 346 340 336 333 328 324 321 317 318 323 319 318 323 318 312 315 321 316 308 307 304
110 107 103 104 106 108 108 110 110 107 103 98 96 96 90 86 85 83 85 87 86 89 89 88 93 90 82 77 67 59 64 74 82 88 92 92 90 91 95 98 98 103 111 116 118 116 112 112 110 106 105 102 94 80 66 62 56 53 53 42 33 25 11 358 349 342 335 329 325 323 318 313 319 324 316 315 323 321 315 312 308 304 304 308 304
107 105 105 104 105 108 114 118 116 108 102 99 96 95 96 96 93 89 90 92 90 94 98 98 98 94 85 76 63 56 61 71 78 82 85 86 86 88 91 92 95 98 103 107 109 107 107 110 109 111 114 104 95 91 85 84 80 71 63 50 32 19 9 359 350 343 337 330 325 324 318 311 314 318 313 316 324 319 306 299 300 300 302 304 298
106 105 109 111 111 114 117 114 109 105 103 105 104 101 103 103 101 101 101 99 98 97 98 100 99 94 91 82 69 67 71 75 78 79 82 87 89 90 88 88 89 90 92 99 107 108 110 113 110 108 112 107 100 96 91 87 74 58 61 51 31 17 7 359 351 344 339 336 333 326 318 313 317 320 317 316 311 301 293 294 298 297 296 295 293
115 119 122 122 123 123 121 115 108 108 110 112 112 110 111 110 109 112 108 103 102 99 100 104 100 93 91 85 76 76 77 77 78 77 85 91 89 86 84 82 82 84 87 91 95 104 107 109 107 107 115 113 105 96 89 80 61 42 29 20 19 15 5 355 350 347 344 342 340 333 323 320 321 317 308 299 289 285 289 293 292 291 292 292 291
127 131 131 128 129 126 124 121 115 116 117 117 117 117 119 120 122 123 119 114 109 108 109 104 98 93 88 84 79 76 73 80 87 90 96 94 87 84 83 79 76 74 75 73 72 85 93 89 91 103 115 108 95 90 86 79 63 45 25 12 15 12 2 354 352 352 350 348 347 342 332 325 319 311 302 297 293 291 290 289 284 283 283 280 279
133 135 135 130 130 128 124 120 118 119 120 121 124 125 125 127 129 127 121 118 116 117 117 108 101 91 82 84 87 86 86 91 97 98 96 93 88 83 79 73 68 64 65 67 70 79 78 61 63 85 97 96 94 90 72 59 55 47 31 19 15 9 1 357 357 357 355 353 351 344 336 330 321 312 307 303 300 297 294 290 286 282 279 275 273
137 137 136 131 133 133 128 123 122 122 126 128 128 128 126 123 125 122 115 115 119 121 121 115 105 89 80 86 89 89 90 92 95 95 92 90 86 80 74 71 69 64 61 58 55 60 54 35 45 71 86 93 96 82 52 45 48 39 23 14 11 6 3 4 3 0 357 354 348 337 334 333 325 317 313 307 301 299 297 294 290 286 283 280 276
137 136 132 132 137 136 131 130 128 127 130 130 125 123 122 119 121 119 116 117 121 125 124 116 101 87 83 90 91 91 92 90 89 88 86 85 83 78 72 68 65 60 55 46 36 38 38 34 49 73 86 87 83 67 59 59 53 38 24 17 12 8 9 14 12 5 359 355 344 332 330 330 325 319 313 306 302 300 298 296 294 291 287 284 280
136 132 130 136 140 139 138 138 136 136 136 134 132 132 132 135 136 127 123 123 126 133 132 118 101 89 87 96 99 97 97 95 93 91 88 86 82 77 69 60 50 41 39 37 35 38 43 44 59 79 83 79 80 77 70 61 48 36 28 22 18 14 12 15 13 5 359 353 343 333 331 329 322 315 308 302 300 301 302 300 296 292 289 288 287
141 137 140 145 146 145 145 145 145 147 145 142 150 154 152 155 149 136 133 135 138 140 136 125 116 109 106 113 117 111 105 104 102 96 90 85 79 72 61 47 40 35 32 32 31 28 31 45 65 82 81 78 83 82 70 54 41 32 27 21 17 11 6 5 4 358 351 347 340 332 328 325 321 315 311 308 308 308 305 300 296 295 295 293 292
149 148 151 152 153 150 150 156 157 154 150 152 162 165 161 159 152 145 146 149 150 147 141 139 138 133 130 131 133 128 116 105 96 89 87 81 70 60 50 38 35 32 27 26 20 11 16 34 62 84 88 84 79 73 70 59 39 28 21 13 7 3 0 357 355 349 344 341 337 332 329 327 324 320 317 317 315 311 307 303 301 299 295 293 291
154 157 158 156 160 158 157 164 163 156 154 158 168 170 167 164 160 158 159 161 160 155 151 152 148 143 140 138 140 135 117 101 92 86 83 73 56 48 39 29 26 18 12 12 13 17 26 38 69 89 95 91 86 91 97 77 35 19 11 4 0 359 355 350 346 343 342 341 338 334 332 333 334 330 325 321 318 315 312 308 306 302 298 296 292
160 164 164 164 168 162 163 167 164 162 163 166 171 172 170 171 170 168 169 170 167 161 158 159 151 145 141 140 142 135 120 112 102 91 79 65 55 45 31 23 16 5 359 358 5 25 38 53 80 89 81 72 71 73 54 24 11 4 359 357 355 352 349 344 341 340 341 342 339 337 339 341 341 337 329 325 323 322 319 313 311 309 305 299 294
168 171 170 172 172 166 169 170 168 172 174 173 173 173 175 178 176 175 175 172 169 163 162 160 155 154 150 146 145 139 132 126 110 96 75 55 45 30 18 8 1 356 354 355 5 29 39 58 78 72 26 353 331 339 358 358 2 358 350 349 347 345 343 339 337 339 340 340 338 336 335 335 332 328 322 320 319 319 316 314 314 313 308 301 296
173 173 175 179 175 171 174 174 174 180 182 181 178 175 180 181 179 181 179 173 168 165 166 169 165 162 157 151 150 149 145 141 126 104 66 42 18 7 0 349 346 349 354 358 8 24 25 45 70 44 319 323 335 352 349 342 356 356 348 343 339 337 337 335 334 336 336 336 333 329 327 325 326 326 324 322 319 318 315 311 310 308 305 301 295
174 173 178 183 181 178 179 179 181 185 186 185 181 179 183 184 182 187 185 177 171 168 173 176 171 166 160 156 158 159 156 155 148 109 70 40 2 345 343 339 338 344 359 7 6 13 18 21 31 0 323 333 357 8 333 332 345 347 344 339 332 330 332 333 334 334 332 331 328 326 326 325 327 330 328 325 322 319 315 309 305 301 298 296 292
174 176 183 188 187 184 184 184 186 188 188 186 183 182 186 186 186 191 189 182 174 172 177 179 172 169 164 163 168 167 164 167 148 96 57 4 339 333 334 335 335 346 19 35 21 15 10 359 10 3 340 0 27 2 321 332 335 331 333 333 328 327 329 329 331 330 328 329 327 326 327 325 326 327 325 323 322 320 315 309 303 297 293 289 286
179 183 189 194 192 188 188 189 190 191 191 189 187 187 188 188 188 188 185 182 177 176 180 179 174 173 173 175 176 171 174 178 136 64 10 342 331 328 330 334 340 358 30 39 26 23 15 2 10 2 346 10 34 358 327 330 328 325 329 330 325 323 323 323 326 327 327 328 326 325 326 325 325 326 322 319 320 320 316 310 304 298 293 289 285
186 191 196 199 197 191 190 191 193 193 193 192 192 194 193 190 188 184 180 180 179 177 179 180 178 178 180 184 178 177 187 184 83 25 358 340 328 327 330 338 352 7 27 34 28 28 21 11 9 356 352 24 19 339 328 328 328 328 331 329 322 317 318 318 322 325 326 327 326 324 324 323 324 324 320 317 317 317 313 307 302 296 293 293 292
190 194 200 203 198 192 190 192 195 194 192 192 194 197 197 194 191 185 182 181 177 175 176 178 179 180 184 185 180 185 201 184 56 10 348 328 320 323 330 346 5 14 29 34 26 21 14 9 5 353 0 34 353 326 327 331 332 336 337 330 317 314 316 316 321 323 322 322 321 320 319 319 319 320 319 320 320 317 310 302 297 294 293 293 294
198 196 201 202 199 196 193 193 193 191 191 193 195 197 200 200 195 189 186 184 177 173 174 176 177 181 184 184 185 192 207 116 40 352 330 317 315 326 342 2 19 22 30 27 16 15 12 6 6 352 349 11 343 328 333 340 344 348 344 329 315 317 319 318 320 320 318 317 315 316 317 316 317 319 319 319 320 317 310 302 297 295 294 294 295
213 203 200 201 202 201 197 194 194 191 192 195 195 196 200 201 197 192 190 188 180 174 174 175 176 179 179 182 184 182 154 47 358 329 321 319 326 31 30 24 21 14 16 16 15 25 19 6 6 356 345 352 344 338 345 355 357 353 343 327 320 323 322 319 318 316 315 314 311 314 315 313 316 320 318 318 320 318 311 303 298 297 295 295 298
209 200 196 198 201 202 198 196 198 196 194 195 194 196 199 199 197 194 192 189 184 179 177 175 177 177 171 168 159 144 137 333 327 321 319 338 109 91 67 37 16 12 18 21 23 29 21 8 9 3 347 339 339 349 359 2 354 348 343 334 326 325 323 320 319 317 313 312 311 313 314 311 309 312 318 321 322 320 313 306 302 299 297 298 305
194 193 197 198 197 200 200 202 204 199 194 195 195 194 198 201 199 197 194 192 187 182 177 175 177 171 161 157 158 167 182 184 175 227 190 140 124 105 88 51 16 19 29 29 16 12 11 7 10 6 349 341 344 351 352 351 348 346 349 344 332 326 325 323 321 318 314 313 314 315 318 318 310 310 320 325 326 326 319 309 302 298 297 304 317
181 187 194 186 186 199 206 208 210 203 196 196 196 195 199 203 201 199 198 194 186 179 173 172 171 165 164 172 180 186 188 173 150 147 146 133 127 120 105 66 21 21 26 21 8 2 3 358 355 355 353 359 6 345 336 340 345 347 350 349 337 329 328 326 321 318 315 317 319 318 322 325 318 318 326 329 333 338 329 312 308 309 309 318 325
128 142 182 189 190 205 213 211 209 204 199 200 201 201 203 201 200 203 201 191 180 173 168 167 165 163 172 186 190 185 177 159 147 146 141 136 135 128 113 89 44 30 28 26 15 4 356 348 344 349 2 8 355 342 334 335 341 346 349 349 343 333 330 327 322 318 318 320 321 321 323 324 322 325 335 340 342 347 340 328 327 327 319 320 320
68 146 213 218 208 208 212 205 199 202 203 204 206 208 204 199 201 205 197 181 174 169 167 166 164 166 181 194 192 181 168 153 150 148 142 138 138 130 119 107 84 62 56 51 35 6 343 338 343 350 355 341 334 338 342 337 338 344 345 345 341 333 330 329 323 320 320 320 320 321 323 326 329 336 347 350 346 347 347 341 336 326 316 319 320
279 223 220 230 235 212 192 189 197 209 210 209 210 209 204 201 203 200 185 171 168 169 169 168 168 177 190 196 186 174 165 155 153 151 146 143 141 137 128 117 107 99 87 60 32 6 343 333 338 338 338 336 330 333 340 342 343 343 341 342 339 332 332 333 325 319 318 318 320 323 326 331 339 347 350 348 346 350 350 347 344 335 324 326 327
307 281 246 240 271 292 175 187 201 207 204 206 212 210 207 207 203 189 177 170 167 170 172 173 176 184 191 189 174 164 161 160 155 149 146 146 145 140 129 120 119 119 80 30 9 10 350 330 338 339 335 337 336 332 336 342 345 344 341 342 340 334 335 335 328 320 315 316 321 325 329 334 342 348 347 347 350 353 352 351 352 348 339 335 339
327 337 10 22 339 273 206 195 195 196 196 202 209 210 210 208 195 178 174 172 171 174 176 178 183 186 182 177 170 164 165 165 158 152 149 147 145 143 136 128 129 134 87 7 5 11 358 347 352 343 335 336 340 345 350 347 344 342 339 337 337 335 334 333 327 317 312 316 323 328 330 334 343 348 348 350 354 355 354 354 355 357 357 356 355
335 345 15 28 342 257 214 196 195 198 198 198 204 211 211 203 187 177 174 171 173 177 177 181 188 185 175 172 167 164 170 170 161 153 146 142 143 143 138 137 145 141 76 18 13 2 355 10 351 335 335 341 343 353 1 355 347 344 342 339 338 336 334 331 326 317 317 323 329 332 336 346 355 354 350 352 356 357 357 357 358 3 9 6 359
340 344 355 352 297 249 217 207 204 205 202 195 198 209 209 196 186 182 175 171 175 178 178 182 187 181 176 178 173 172 177 171 161 154 144 136 140 141 137 144 158 144 99 35 35 21 2 354 345 339 339 340 348 3 5 358 350 347 347 345 342 340 337 334 329 326 328 332 332 334 349 8 4 356 358 2 1 1 2 1 1 4 3 358 353
339 339 338 324 283 253 233 218 208 210 210 198 193 200 202 193 187 183 176 173 178 180 175 173 173 174 182 186 181 181 182 172 159 151 138 130 135 140 138 129 93 54 32 27 37 35 11 345 347 355 343 336 357 14 4 355 350 348 347 345 343 343 342 336 333 335 335 332 332 343 4 14 3 0 9 9 4 4 4 3 4 2 357 353 353
339 337 336 322 287 252 234 223 213 214 214 203 194 194 196 190 182 177 175 175 176 174 169 163 167 180 187 186 182 184 183 170 155 141 128 128 132 133 125 107 86 68 53 44 34 28 17 355 348 4 1 353 7 10 357 351 351 349 348 347 345 347 349 344 343 343 337 332 342 359 10 10 5 6 10 7 3 0 357 358 1 0 357 357 358
337 335 332 319 285 245 231 227 216 211 213 210 199 188 181 175 168 166 170 170 164 161 164 168 180 189 190 185 184 183 176 166 157 144 134 135 139 139 137 125 113 99 81 69 56 44 27 2 351 4 10 360 359 359 353 353 354 350 348 347 344 346 350 351 352 352 346 346 358 7 10 9 7 6 5 2 359 355 351 353 355 353 354 360 1
335 331 328 319 291 243 230 230 218 208 214 215 201 183 172 170 170 165 163 166 168 169 173 184 195 194 186 182 183 179 171 165 160 148 140 139 141 145 150 146 132 113 88 79 76 74 41 5 355 0 360 346 347 355 358 357 355 350 347 346 343 344 348 353 357 356 355 2 9 10 9 10 6 3 1 357 352 350 350 351 349 347 353 2 3
Height
790 793 797 799 800 801 803 804 805 806 808 809 810 811 812 813 814 814 815 816 816 816 817 817 818 818 818 819 818 819 819 819 819 820 820 821 821 821 821 822 823 823 824 824 824 824 825 825 825 826 826 826 826 825 825 824 824 823 822 820 819 818 817 816 815 813 811 809 807 806 805 804 804 804 803 802 802 802 801 801 802 803 803 804 804
790 794 796 798 799 800 801 801 803 805 806 808 809 810 811 812 813 813 814 815 815 815 816 816 816 817 817 817 817 818 818 818 818 818 819 819 820 820 820 820 820 820 822 822 823 823 823 824 824 825 825 825 825 824 824 824 824 823 822 820 819 817 816 815 815 813 810 809 807 805 804 803 803 803 803 803 802 802 802 801 801 801 802 802 803
793 795 796 797 798 798 800 800 802 804 805 807 808 809 811 812 812 812 813 814 814 814 814 815 816 816 816 817 817 817 817 817 817 817 817 818 817 817 818 818 818 818 819 820 821 822 823 824 824 824 824 823 823 823 823 823 823 822 821 820 818 817 816 815 815 813 811 809 807 806 805 804 804 802 801 802 802 801 801 800 800 800 800 801 802
794 794 795 796 797 798 799 800 801 803 805 806 807 809 810 811 812 812 813 813 813 814 814 815 815 815 815 815 816 816 815 815 815 815 815 815 814 814 815 815 815 816 817 818 819 821 821 822 823 823 823 822 822 821 821 822 822 821 821 819 818 817 816 814 814 814 813 811 809 808 805 804 806 803 800 800 800 800 800 799 799 799 798 799 800
792 794 794 795 796 798 798 800 801 803 804 805 807 809 809 810 811 812 812 813 813 813 814 814 814 814 814 814 814 814 814 814 813 813 812 812 812 812 813 814 814 815 815 816 818 819 819 820 822 822 822 822 821 820 820 820 821 821 820 819 817 816 815 813 813 813 813 812 811 810 807 807 808 803 801 801 799 799 799 798 798 798 798 798 798
789 791 793 794 795 798 799 800 802 803 804 805 807 808 809 810 811 812 812 813 813 813 813 813 813 814 814 813 813 813 812 812 811 811 810 810 810 811 812 812 814 815 815 816 817 818 818 819 820 820 821 821 820 820 819 819 820 820 819 818 816 815 815 813 812 811 811 811 811 811 811 811 808 803 803 802 800 798 798 798 798 798 798 797 797
788 789 791 793 795 797 799 800 801 803 804 805 807 808 809 810 811 811 812 812 812 812 812 813 812 813 813 812 812 812 811 810 810 810 809 809 809 810 811 812 813 814 814 815 816 818 818 819 819 819 819 820 820 819 819 819 818 818 817 816 815 815 815 814 811 810 809 809 809 809 809 809 808 806 805 803 802 800 798 798 798 797 797 797 796
788 790 791 793 795 796 798 799 801 802 804 805 806 807 808 809 810 811 812 812 812 812 812 812 812 812 812 811 811 810 810 809 809 809 808 808 808 810 810 811 811 812 812 813 815 817 817 817 818 818 818 819 819 819 819 818 817 817 817 815 815 815 815 814 812 811 809 808 808 808 807 806 806 806 805 804 803 802 799 797 797 797 797 797 796
786 789 791 792 794 796 798 799 801 802 803 804 805 806 808 808 809 810 810 811 811 812 812 812 812 811 811 810 809 809 809 808 809 808 808 808 808 809 810 810 810 810 811 812 814 815 815 815 816 816 817 818 818 818 818 818 817 817 816 816 815 815 814 814 813 812 811 809 809 808 808 805 803 803 803 802 801 802 801 797 795 796 796 795 795
786 788 791 793 795 796 798 799 801 802 803 804 805 806 808 808 809 810 810 811 811 811 812 811 811 811 810 809 808 808 808 807 808 807 807 807 807 809 809 810 810 810 811 812 813 814 814 814 815 815 817 817 817 817 817 817 817 817 816 816 816 815 815 814 813 812 811 811 809 808 808 805 802 801 801 800 799 800 800 796 793 793 794 794 794
788 790 792 794 796 797 798 800 801 803 804 804 806 807 808 809 809 810 811 811 811 811 811 811 811 811 810 809 808 807 807 807 807 807 807 807 807 808 809 810 810 810 811 811 812 813 813 813 814 815 816 817 817 817 817 816 816 816 816 816 816 816 815 815 814 813 812 811 809 808 807 804 802 801 800 800 799 799 799 796 792 792 792 791 791
790 792 794 795 796 797 799 802 803 804 804 805 806 807 809 810 810 811 811 811 812 811 812 811 811 811 810 809 808 807 807 806 806 806 806 806 807 808 809 809 810 810 811 811 811 812 813 813 814 815 816 817 817 816 817 817 816 816 816 816 816 816 816 815 814 813 811 810 809 807 806 804 802 801 800 800 800 799 800 798 794 793 792 790 789
791 793 794 795 796 797 799 802 803 804 805 806 807 808 809 810 810 811 811 812 812 812 812 812 811 811 810 810 809 808 807 806 806 806 806 807 807 808 808 809 810 810 811 811 811 812 814 814 815 816 817 817 817 817 817 817 817 817 817 817 817 816 816 815 814 813 812 810 809 807 806 804 802 800 800 800 799 799 799 797 795 794 792 789 787
792 793 794 795 796 797 799 802 803 804 806 807 808 809 809 810 811 811 812 812 813 813 813 813 813 812 811 810 810 808 807 807 806 806 807 807 807 808 809 809 810 810 811 811 812 813 815 815 816 816 817 817 817 817 818 818 818 818 818 817 817 817 817 816 815 813 812 811 810 808 806 804 802 801 801 799 799 798 797 795 793 793 792 789 787
792 793 795 796 797 799 800 803 804 805 807 808 809 810 810 811 811 812 813 813 813 813 814 813 813 813 812 811 810 809 808 808 807 807 807 808 808 808 809 809 810 810 811 812 813 814 815 815 816 816 817 817 817 818 818 818 818 818 818 818 818 818 817 816 815 813 812 811 810 808 807 805 803 802 801 800 799 799 797 796 795 796 795 792 788
793 794 796 797 798 799 801 803 805 806 807 808 809 810 810 811 812 812 813 814 814 814 814 814 813 813 813 812 811 810 810 809 809 809 809 809 809 809 810 810 810 811 812 813 813 814 815 815 816 817 817 818 818 818 818 819 819 819 819 819 818 818 817 816 815 813 812 811 809 808 807 805 803 803 802 801 800 800 799 798 797 797 797 796 793
794 795 797 798 798 800 802 803 805 805 807 809 810 811 811 812 813 813 814 814 814 814 814 814 814 814 813 813 813 812 812 811 811 811 811 810 811 810 811 811 811 812 812 813 814 815 815 816 816 817 817 818 818 818 819 819 819 819 819 819 819 818 817 816 815 813 812 811 809 808 807 805 804 803 802 801 801 801 800 799 797 796 796 797 797
796 796 797 799 799 801 802 803 805 806 807 809 811 812 812 813 813 814 815 814 815 815 815 815 815 815 814 814 814 814 813 813 813 812 812 812 812 812 812 812 812 813 814 814 815 815 816 816 817 817 818 818 818 819 819 819 820 820 819 819 819 818 817 816 815 813 812 811 809 808 807 805 804 803 803 802 802 802 800 799 798 797 796 796 796
797 797 798 798 799 802 802 804 805 806 808 809 810 812 813 814 814 815 815 815 815 815 815 816 815 816 816 815 815 815 815 814 814 814 814 813 813 813 813 814 814 814 815 816 816 816 817 817 817 818 818 818 819 819 820 820 820 820 819 819 819 819 817 816 815 813 812 811 810 809 807 805 805 804 803 802 801 800 799 798 797 796 796 796 795
797 797 798 797 799 802 802 804 806 807 809 809 810 812 813 814 815 815 816 815 816 816 816 816 816 817 817 816 816 816 816 816 815 816 815 815 815 815 815 815 815 816 816 817 817 817 818 818 818 818 818 819 819 820 820 820 820 820 819 819 819 819 818 816 815 814 812 811 810 809 808 806 805 804 802 801 800 798 798 797 797 796 796 795 795
796 796 797 797 799 801 803 805 806 807 809 809 811 812 813 814 815 815 816 816 816 816 816 817 817 817 817 817 817 816 816 817 816 816 816 816 816 816 816 816 817 817 818 818 818 818 818 818 818 819 819 819 820 821 821 821 821 820 820 820 819 819 818 816 815 814 813 812 811 810 808 807 805 804 802 801 799 798 797 796 795 795 794 794 793
794 794 795 796 799 801 803 806 807 808 809 810 811 812 813 814 814 815 815 816 816 817 817 817 818 818 818 817 817 817 817 817 817 817 816 817 817 817 817 818 818 818 819 819 819 819 819 819 819 819 820 821 821 821 821 821 821 821 820 820 819 819 818 817 816 815 814 813 812 810 809 807 806 804 802 801 799 797 796 795 794 794 793 792 792
792 793 794 796 799 801 803 806 807 809 810 810 811 812 813 814 814 815 815 816 817 817 817 818 818 818 818 818 818 818 818 818 817 817 817 818 818 818 819 819 819 819 819 819 819 819 819 820 820 820 821 821 822 822 822 822 822 822 821 821 820 819 818 817 816 816 815 814 812 811 809 808 806 805 803 801 799 797 796 795 794 793 792 791 790
793 794 795 797 800 801 803 805 807 809 810 811 812 812 813 814 814 815 815 816 817 817 818 818 818 819 819 819 819 819 819 819 818 818 818 819 819 819 819 819 819 819 819 819 819 819 820 820 820 821 821 822 822 823 823 823 822 822 822 821 820 819 818 817 817 816 815 814 813 811 810 808 807 805 803 801 799 797 796 795 793 792 791 790 789
795 796 797 799 800 801 803 805 807 808 809 811 812 812 813 813 814 814 815 816 816 817 818 818 819 819 820 820 820 820 820 820 820 820 820 820 820 820 820 820 820 820 820 820 820 820 820 820 820 821 822 822 823 823 823 823 823 822 822 821 820 820 819 818 817 816 815 814 813 811 810 808 807 805 803 801 799 798 796 795 794 792 791 790 789
797 798 798 799 800 801 803 805 806 807 808 810 811 812 812 813 813 814 815 816 816 817 818 818 819 819 820 821 821 821 822 821 821 821 821 821 821 821 821 821 820 820 820 820 820 820 819 820 820 821 822 822 823 823 823 823 823 823 822 822 821 820 819 818 817 816 815 814 812 811 809 808 807 805 803 801 799 798 797 795 794 792 791 790 788
796 797 798 800 800 801 803 804 805 806 807 809 810 811 812 812 813 814 814 815 816 817 818 819 819 820 820 821 822 822 823 823 823 822 822 822 822 822 822 821 821 820 820 820 820 820 820 820 821 821 822 823 823 823 824 823 823 823 822 822 821 820 819 818 817 816 814 813 812 810 809 808 806 805 803 802 800 798 797 795 794 792 791 790 788
796 797 798 800 800 801 802 803 804 805 807 807 808 809 810 811 812 813 814 815 816 817 818 819 819 820 821 822 822 823 823 823 823 823 823 823 822 822 822 821 821 821 820 820 820 820 820 821 821 822 823 823 824 824 824 824 823 823 822 822 821 820 819 818 817 815 814 813 811 810 809 808 806 805 804 802 801 799 797 796 794 793 791 790 788
796 797 798 799 799 799 801 803 804 805 806 806 807 809 809 811 812 812 813 814 815 817 818 819 820 820 821 822 822 823 823 823 823 823 823 823 823 823 822 821 821 821 820 820 820 820 821 821 822 822 823 824 824 823 823 824 823 823 823 822 821 820 819 818 816 815 814 813 811 810 809 807 806 805 803 802 801 800 798 796 795 793 792 790 788
794 795 796 797 798 798 800 802 803 805 805 806 807 808 809 811 811 812 813 813 815 816 817 818 819 819 820 821 822 822 823 823 824 824 824 824 824 823 823 822 821 821 820 821 821 821 821 822 822 823 823 823 823 823 823 823 823 823 823 822 821 820 819 817 816 815 814 812 811 810 808 807 806 804 803 802 801 799 798 796 795 793 792 790 788
792 794 795 795 796 798 799 801 802 804 804 806 807 808 810 811 811 812 812 813 814 816 816 817 818 819 820 821 821 822 823 824 824 824 824 824 824 824 824 823 822 821 821 821 822 822 822 823 823 823 823 823 823 823 823 824 824 823 823 822 821 820 818 817 816 815 813 812 811 809 808 806 805 804 802 801 800 798 797 795 794 792 791 789 787
792 793 793 794 794 796 798 799 800 802 803 805 807 808 809 809 810 811 812 813 815 815 817 818 818 819 820 821 822 823 824 824 825 825 825 825 825 825 825 824 823 822 822 822 823 823 823 823 824 824 824 824 823 824 824 824 824 823 823 822 821 820 818 817 816 815 813 812 810 809 807 805 804 803 802 800 798 797 796 794 792 791 789 788 786
791 792 792 793 793 794 796 797 798 800 802 803 805 806 807 807 808 810 811 814 815 816 817 818 819 820 821 821 823 824 824 825 826 826 826 826 826 826 826 825 825 824 823 823 824 824 824 824 824 824 824 824 824 825 824 824 824 823 822 822 821 820 818 817 816 815 813 812 810 808 807 805 804 802 801 799 798 796 794 792 791 789 787 785 784
790 790 790 790 791 792 795 796 797 799 800 802 803 804 806 806 807 808 810 812 814 815 817 818 819 820 821 822 824 824 825 826 826 827 827 827 828 827 827 826 826 825 824 824 824 825 825 826 826 825 825 825 825 825 825 824 824 823 822 821 821 820 818 817 816 814 813 811 809 808 806 805 803 802 800 798 797 795 793 791 789 786 784 783 782
789 788 788 789 790 792 793 794 796 797 798 800 802 803 804 805 806 808 809 810 812 813 815 817 819 820 821 822 824 825 826 827 827 828 828 828 828 827 827 827 826 826 826 825 825 826 826 826 827 826 826 826 826 825 825 824 824 823 822 821 820 819 818 816 815 814 812 810 809 807 806 804 802 801 799 797 796 794 792 789 787 784 782 780 779
786 786 787 788 789 791 792 793 794 796 797 799 800 802 803 804 806 808 809 810 811 813 815 817 818 820 821 823 824 825 826 827 828 828 828 828 828 828 828 827 827 827 826 826 826 826 827 827 827 827 827 826 826 825 825 825 824 823 822 821 820 819 817 816 814 813 812 810 808 807 805 804 802 800 798 796 795 793 790 787 784 781 779 777 777
784 785 786 787 789 790 791 793 794 795 797 798 800 801 802 804 806 808 809 810 812 813 815 816 818 819 821 822 824 825 826 827 828 828 828 828 828 828 828 828 828 828 827 827 827 827 828 828 828 828 827 827 826 825 825 825 824 823 822 821 820 818 817 816 814 812 811 809 807 806 805 803 801 799 797 795 793 791 788 785 782 779 777 775 774
783 784 785 786 788 789 790 792 793 794 796 797 799 800 801 804 805 807 808 810 811 813 815 816 818 819 820 822 823 824 825 827 827 827 828 828 828 828 828 829 829 829 829 829 829 828 829 829 829 829 828 827 827 826 825 825 824 823 822 821 820 818 816 815 813 812 810 808 806 805 803 801 799 798 796 794 791 789 786 783 780 777 775 773 772
783 784 785 786 788 789 790 791 792 793 795 795 797 799 800 802 804 805 807 809 810 812 814 815 817 818 819 820 820 821 822 823 824 825 826 827 827 828 829 829 830 830 829 830 829 830 830 830 830 829 828 828 827 826 825 825 824 823 822 821 820 818 816 815 813 811 809 807 805 803 801 799 797 796 794 792 789 787 784 782 779 776 773 772 771
783 785 785 786 788 789 789 790 791 792 793 794 796 798 799 801 803 804 806 807 809 811 812 814 816 817 817 817 817 819 820 820 821 823 825 826 827 828 829 830 830 830 830 830 830 830 831 831 830 830 829 828 827 827 826 825 823 823 822 820 819 818 816 815 813 810 808 805 803 801 800 798 796 794 792 790 787 785 783 780 778 775 773 771 771
785 786 786 786 787 788 788 790 791 792 794 795 796 798 799 800 802 804 805 807 809 810 811 813 815 815 816 816 816 818 819 820 821 822 823 825 826 827 828 829 830 831 831 831 831 831 831 831 831 830 829 828 828 827 826 825 823 823 821 820 819 818 817 815 813 810 807 804 802 800 799 797 794 792 790 788 786 784 782 779 777 775 773 772 770
786 787 787 786 787 788 789 790 792 793 794 795 797 798 799 800 802 803 805 807 808 810 811 812 814 815 815 815 816 818 819 820 820 821 822 824 825 827 828 829 830 831 831 831 831 831 831 831 831 830 830 829 828 827 826 825 824 822 821 820 819 818 816 815 812 809 807 804 802 800 798 795 793 790 788 786 784 783 781 779 777 775 773 771 769
786 787 787 787 787 788 789 791 792 794 795 795 797 798 799 800 802 802 804 806 807 809 811 812 814 814 814 815 817 819 820 820 819 820 822 824 825 826 827 828 830 831 831 831 831 831 831 831 831 831 830 829 828 827 826 825 824 822 821 819 818 817 815 814 812 809 806 804 801 799 797 794 792 789 788 785 784 782 780 778 776 774 772 770 768
786 786 787 788 789 789 790 792 793 793 795 796 796 798 799 800 801 802 804 806 807 808 810 812 813 815 815 816 818 819 821 821 820 820 822 823 825 826 827 828 830 831 831 831 831 831 831 831 831 831 830 829 828 827 826 825 823 822 820 819 818 816 814 813 811 808 805 803 800 798 796 793 791 789 787 785 783 782 780 778 775 773 771 769 768
786 787 788 789 791 791 791 792 793 794 795 795 796 797 798 799 801 802 804 805 806 808 810 811 814 815 816 817 818 819 821 821 820 821 821 823 825 826 827 828 830 831 831 831 830 830 831 831 831 831 830 829 828 827 826 825 823 822 820 818 817 815 813 812 809 806 804 801 799 797 794 792 790 788 786 785 783 781 779 777 775 773 771 770 768
787 788 789 791 791 792 792 793 794 794 795 795 796 797 797 799 800 802 803 805 806 808 810 812 815 816 817 818 818 819 821 821 821 821 821 823 825 826 828 829 829 830 831 830 830 830 830 830 831 830 830 829 828 827 826 825 824 822 820 818 816 814 813 811 808 805 802 799 797 795 792 791 789 788 786 784 783 781 779 777 775 773 772 770 769
789 789 791 792 792 792 792 793 794 795 795 795 796 796 797 798 800 801 803 805 807 809 811 813 815 816 818 819 819 820 821 821 821 821 821 822 824 826 828 829 829 829 830 829 829 829 829 829 830 830 829 828 827 827 826 825 824 822 820 818 816 814 812 809 806 803 800 798 796 794 791 790 789 787 786 784 782 780 778 776 775 773 772 771 769
790 790 791 792 792 792 793 793 794 795 795 795 795 796 797 798 799 801 803 805 807 809 811 813 814 816 818 818 819 820 820 820 821 821 821 822 824 826 827 828 828 829 829 828 828 829 829 829 829 829 829 828 826 826 826 825 824 822 820 819 816 814 812 809 806 803 799 797 795 792 791 790 789 787 786 784 782 781 779 777 775 774 773 771 769
790 790 791 792 792 793 793 793 794 794 795 795 795 796 797 798 799 801 803 804 807 809 811 813 814 816 817 818 819 820 820 820 821 821 821 823 824 826 828 828 829 830 830 829 829 829 829 829 829 829 829 828 827 827 827 826 824 822 821 819 816 814 812 809 806 802 798 796 794 792 791 791 790 788 786 785 783 782 779 778 776 774 773 771 769
791 791 791 791 791 792 793 793 793 794 795 795 795 796 797 798 799 801 803 805 807 809 811 813 814 815 816 817 818 819 820 820 821 821 822 823 825 827 828 829 830 830 830 830 830 830 831 831 830 830 830 829 829 828 827 826 824 823 821 819 817 815 812 809 806 802 798 795 794 793 793 792 791 789 788 786 785 783 781 779 777 775 774 771 770
792 791 791 791 791 792 792 792 793 794 795 795 796 796 797 798 799 801 803 805 807 809 810 812 813 813 814 815 817 818 820 821 821 821 822 824 826 828 829 829 830 830 830 830 831 831 832 832 832 831 830 830 829 828 827 826 824 823 821 819 817 815 812 810 806 802 798 796 796 795 795 794 792 791 790 788 786 784 782 781 778 776 774 772 771